owner,sensor,date,latitude,longitude,vertical_datum,wind_speed,wind_to_direction,wind_speed_of_gust,qcFlag 
TABS,ioos:station:wmo:42045:1,2009-04-01T00:00:00Z,26.2168,-96.4998,4.0,11.76633333,26.28167813,13.89,'11111222,11111222,11111222' 
TABS,ioos:station:wmo:42045:1,2009-04-01T00:30:00Z,26.2168,-96.4998,4.0,11.53230246,33.46930551,13.34,'11111222,11111222,11111222' 
TABS,ioos:station:wmo:42045:1,2009-04-01T01:00:00Z,26.2168,-96.4998,4.0,10.95319588,28.99843744,12.75,'11111222,11111222,11111222' 
TABS,ioos:station:wmo:42045:1,2009-04-01T01:30:00Z,26.2168,-96.4998,4.0,10.76641537,31.90356,12.91,'11111222,11111222,11111222' 
TABS,ioos:station:wmo:42045:1,2009-04-01T02:00:00Z,26.2168,-96.4998,4.0,10.68562118,29.61158783,13.43,'11111222,11111222,11111222' 
TABS,ioos:station:wmo:42045:1,2009-04-01T02:30:00Z,26.2168,-96.4998,4.0,10.37913773,40.34951034,12.53,'11111222,11111222,11111222' 
TABS,ioos:station:wmo:42045:1,2009-04-01T03:00:00Z,26.2168,-96.4998,4.0,9.587752604,41.95581079,11.63,'11111222,11111222,11111222' 
TABS,ioos:station:wmo:42045:1,2009-04-01T03:30:00Z,26.2168,-96.4998,4.0,8.523438273,42.24172714,10.21,'11111222,11111222,11111222' 
TABS,ioos:station:wmo:42045:1,2009-04-01T04:00:00Z,26.2168,-96.4998,4.0,7.397384673,47.68430801,8.68,'11111222,11111222,11111222' 
TABS,ioos:station:wmo:42045:1,2009-04-01T04:30:00Z,26.2168,-96.4998,4.0,6.756663378,50.58496923,8.03,'11111222,11111222,11111222' 
TABS,ioos:station:wmo:42045:1,2009-04-01T05:00:00Z,26.2168,-96.4998,4.0,5.885618064,54.47330093,6.77,'11111222,11111222,11111222' 
TABS,ioos:station:wmo:42045:1,2009-04-01T05:30:00Z,26.2168,-96.4998,4.0,4.481260983,58.97011353,5.7,'11111222,11111222,11111222' 
TABS,ioos:station:wmo:42045:1,2009-04-01T06:00:00Z,26.2168,-96.4998,4.0,4.138272586,55.73358114,4.93,'11111222,11111222,11111222' 
TABS,ioos:station:wmo:42045:1,2009-04-01T06:30:00Z,26.2168,-96.4998,4.0,3.596720729,54.27680196,4.44,'11111222,11111222,11111222' 
TABS,ioos:station:wmo:42045:1,2009-04-01T07:00:00Z,26.2168,-96.4998,4.0,3.841588213,63.23448963,4.58,'11111222,11111222,11111222' 
TABS,ioos:station:wmo:42045:1,2009-04-01T07:30:00Z,26.2168,-96.4998,4.0,3.954554336,46.74159104,5.04,'11111222,11111222,11111222' 
TABS,ioos:station:wmo:42045:1,2009-04-01T08:00:00Z,26.2168,-96.4998,4.0,5.002439405,77.29687687,5.75,'11111222,11111222,11111222' 
TABS,ioos:station:wmo:42045:1,2009-04-01T08:30:00Z,26.2168,-96.4998,4.0,5.364000373,48.7032186,6.64,'11111222,11111222,11111222' 
TABS,ioos:station:wmo:42045:1,2009-04-01T09:00:00Z,26.2168,-96.4998,4.0,5.540487343,54.84667451,6.78,'11111222,11111222,11111222' 
TABS,ioos:station:wmo:42045:1,2009-04-01T09:30:00Z,26.2168,-96.4998,4.0,6.27114822,72.17141244,7.52,'11111222,11111222,11111222' 
TABS,ioos:station:wmo:42045:1,2009-04-01T10:00:00Z,26.2168,-96.4998,4.0,6.103122152,93.75828404,7.23,'11111222,11111222,11111222' 
TABS,ioos:station:wmo:42045:1,2009-04-01T10:30:00Z,26.2168,-96.4998,4.0,5.909255452,96.60828252,7.45,'11111222,11111222,11111222' 
TABS,ioos:station:wmo:42045:1,2009-04-01T11:00:00Z,26.2168,-96.4998,4.0,5.67198378,91.51582527,6.85,'11111222,11111222,11111222' 
TABS,ioos:station:wmo:42045:1,2009-04-01T11:30:00Z,26.2168,-96.4998,4.0,5.114538102,99.79422537,6.03,'11111222,11111222,11111222' 
TABS,ioos:station:wmo:42045:1,2009-04-01T12:00:00Z,26.2168,-96.4998,4.0,3.979472327,68.01106794,5.2,'11111222,11111222,11111222' 
TABS,ioos:station:wmo:42045:1,2009-04-01T12:30:00Z,26.2168,-96.4998,4.0,3.93192065,60.4355101,4.79,'11111222,11111222,11111222' 
TABS,ioos:station:wmo:42045:1,2009-04-01T13:00:00Z,26.2168,-96.4998,4.0,4.683673772,77.92193816,5.72,'11111222,11111222,11111222' 
TABS,ioos:station:wmo:42045:1,2009-04-01T13:30:00Z,26.2168,-96.4998,4.0,5.550009009,90.1036562,6.74,'11111222,11111222,11111222' 
TABS,ioos:station:wmo:42045:1,2009-04-01T14:00:00Z,26.2168,-96.4998,4.0,4.732409534,84.42151633,5.71,'11111222,11111222,11111222' 
TABS,ioos:station:wmo:42045:1,2009-04-01T14:30:00Z,26.2168,-96.4998,4.0,4.179401871,76.86113734,5.52,'11111222,11111222,11111222' 
TABS,ioos:station:wmo:42045:1,2009-04-01T15:00:00Z,26.2168,-96.4998,4.0,5.383994799,73.04554705,6.93,'11111222,11111222,11111222' 
TABS,ioos:station:wmo:42045:1,2009-04-01T15:30:00Z,26.2168,-96.4998,4.0,5.785378121,69.24653113,7.26,'11111222,11111222,11111222' 
TABS,ioos:station:wmo:42045:1,2009-04-01T16:00:00Z,26.2168,-96.4998,4.0,5.270237186,82.91503289,7.02,'11111222,11111222,11111222' 
TABS,ioos:station:wmo:42045:1,2009-04-01T16:30:00Z,26.2168,-96.4998,4.0,5.920287155,97.47353568,6.83,'11111222,11111222,11111222' 
TABS,ioos:station:wmo:42045:1,2009-04-01T17:00:00Z,26.2168,-96.4998,4.0,5.505233873,92.49900946,6.95,'11111222,11111222,11111222' 
TABS,ioos:station:wmo:42045:1,2009-04-01T17:30:00Z,26.2168,-96.4998,4.0,6.408151059,95.37292473,7.74,'11111222,11111222,11111222' 
TABS,ioos:station:wmo:42045:1,2009-04-01T18:00:00Z,26.2168,-96.4998,4.0,6.040504946,102.8172698,7.54,'11111222,11111222,11111222' 
TABS,ioos:station:wmo:42045:1,2009-04-01T18:30:00Z,26.2168,-96.4998,4.0,5.621503358,106.8558244,7.34,'11111222,11111222,11111222' 
TABS,ioos:station:wmo:42045:1,2009-04-01T19:00:00Z,26.2168,-96.4998,4.0,5.736375162,124.6323228,7.03,'11111222,11111222,11111222' 
TABS,ioos:station:wmo:42045:1,2009-04-01T19:30:00Z,26.2168,-96.4998,4.0,5.635787434,123.4930337,6.55,'11111222,11111222,11111222' 
TABS,ioos:station:wmo:42045:1,2009-04-01T20:00:00Z,26.2168,-96.4998,4.0,6.284114894,126.5237639,7.21,'11111222,11111222,11111222' 
TABS,ioos:station:wmo:42045:1,2009-04-01T20:30:00Z,26.2168,-96.4998,4.0,5.656801216,125.0670386,6.73,'11111222,11111222,11111222' 
TABS,ioos:station:wmo:42045:1,2009-04-01T21:00:00Z,26.2168,-96.4998,4.0,5.433313906,123.5149258,6.44,'11111222,11111222,11111222' 
TABS,ioos:station:wmo:42045:1,2009-04-01T21:30:00Z,26.2168,-96.4998,4.0,5.652052724,129.0400988,6.74,'11111222,11111222,11111222' 
TABS,ioos:station:wmo:42045:1,2009-04-01T22:00:00Z,26.2168,-96.4998,4.0,5.136886216,124.3709955,6.45,'11111222,11111222,11111222' 
TABS,ioos:station:wmo:42045:1,2009-04-01T22:30:00Z,26.2168,-96.4998,4.0,4.562192455,120.2748674,5.57,'11111222,11111222,11111222' 
TABS,ioos:station:wmo:42045:1,2009-04-01T23:00:00Z,26.2168,-96.4998,4.0,4.584157502,117.1243741,5.42,'11111222,11111222,11111222' 
TABS,ioos:station:wmo:42045:1,2009-04-01T23:30:00Z,26.2168,-96.4998,4.0,5.035960683,115.9039443,5.95,'11111222,11111222,11111222' 
TABS,ioos:station:wmo:42045:1,2009-04-02T00:00:00Z,26.2168,-96.4998,4.0,5.589221771,130.5015507,6.58,'11111222,11111222,11111222' 
TABS,ioos:station:wmo:42045:1,2009-04-02T00:30:00Z,26.2168,-96.4998,4.0,5.678424077,135.6424567,6.79,'11111222,11111222,11111222' 
TABS,ioos:station:wmo:42045:1,2009-04-02T01:00:00Z,26.2168,-96.4998,4.0,5.346568993,142.2944949,6.4,'11111222,11111222,11111222' 
TABS,ioos:station:wmo:42045:1,2009-04-02T01:30:00Z,26.2168,-96.4998,4.0,5.33285102,147.949348,6.24,'11111222,11111222,11111222' 
TABS,ioos:station:wmo:42045:1,2009-04-02T02:00:00Z,26.2168,-96.4998,4.0,5.691133455,148.069603,7.14,'11111222,11111222,11111222' 
TABS,ioos:station:wmo:42045:1,2009-04-02T02:30:00Z,26.2168,-96.4998,4.0,5.284590807,136.7638815,6.34,'11111222,11111222,11111222' 
TABS,ioos:station:wmo:42045:1,2009-04-02T03:00:00Z,26.2168,-96.4998,4.0,5.569389554,146.7952828,6.64,'11111222,11111222,11111222' 
TABS,ioos:station:wmo:42045:1,2009-04-02T03:30:00Z,26.2168,-96.4998,4.0,5.283871687,149.0179299,6.55,'11111222,11111222,11111222' 
TABS,ioos:station:wmo:42045:1,2009-04-02T04:00:00Z,26.2168,-96.4998,4.0,5.667142137,159.5507107,6.67,'11111222,11111222,11111222' 
TABS,ioos:station:wmo:42045:1,2009-04-02T04:30:00Z,26.2168,-96.4998,4.0,5.943904441,167.3668781,7.02,'11111222,11111222,11111222' 
TABS,ioos:station:wmo:42045:1,2009-04-02T05:00:00Z,26.2168,-96.4998,4.0,4.038378387,169.4415884,4.78,'11111222,11111222,11111222' 
TABS,ioos:station:wmo:42045:1,2009-04-02T05:30:00Z,26.2168,-96.4998,4.0,4.921635907,159.1717034,6.04,'11111222,11111222,11111222' 
TABS,ioos:station:wmo:42045:1,2009-04-02T06:00:00Z,26.2168,-96.4998,4.0,6.691965332,160.8071835,8.07,'11111222,11111222,11111222' 
TABS,ioos:station:wmo:42045:1,2009-04-02T06:30:00Z,26.2168,-96.4998,4.0,6.937816659,157.723444,8.47,'11111222,11111222,11111222' 
TABS,ioos:station:wmo:42045:1,2009-04-02T07:00:00Z,26.2168,-96.4998,4.0,8.091785959,168.5236671,9.38,'11111222,11111222,11111222' 
TABS,ioos:station:wmo:42045:1,2009-04-02T07:30:00Z,26.2168,-96.4998,4.0,6.171912183,169.0726339,7.37,'11111222,11111222,11111222' 
TABS,ioos:station:wmo:42045:1,2009-04-02T08:00:00Z,26.2168,-96.4998,4.0,5.389248556,165.6030059,6.18,'11111222,11111222,11111222' 
TABS,ioos:station:wmo:42045:1,2009-04-02T08:30:00Z,26.2168,-96.4998,4.0,5.083345355,170.9455698,5.88,'11111222,11111222,11111222' 
TABS,ioos:station:wmo:42045:1,2009-04-02T09:00:00Z,26.2168,-96.4998,4.0,5.540009025,180.1036321,6.41,'11111222,11111222,11111222' 
TABS,ioos:station:wmo:42045:1,2009-04-02T09:30:00Z,26.2168,-96.4998,4.0,6.230288918,180.5519974,7.06,'11111222,11111222,11111222' 
TABS,ioos:station:wmo:42045:1,2009-04-02T10:00:00Z,26.2168,-96.4998,4.0,7.061911922,183.3285487,8.39,'11111222,11111222,11111222' 
TABS,ioos:station:wmo:42045:1,2009-04-02T10:30:00Z,26.2168,-96.4998,4.0,7.339080324,188.9362884,8.81,'11111222,11111222,11111222' 
TABS,ioos:station:wmo:42045:1,2009-04-02T11:00:00Z,26.2168,-96.4998,4.0,7.698084177,193.9822664,9.1,'11111222,11111222,11111222' 
TABS,ioos:station:wmo:42045:1,2009-04-02T11:30:00Z,26.2168,-96.4998,4.0,7.831117417,203.1603191,9.14,'11111222,11111222,11111222' 
TABS,ioos:station:wmo:42045:1,2009-04-02T12:00:00Z,26.2168,-96.4998,4.0,7.709559002,208.4267358,8.92,'11111222,11111222,11111222' 
TABS,ioos:station:wmo:42045:1,2009-04-02T12:30:00Z,26.2168,-96.4998,4.0,7.686585718,210.8360598,9.32,'11111222,11111222,11111222' 
TABS,ioos:station:wmo:42045:1,2009-04-02T13:00:00Z,26.2168,-96.4998,4.0,8.74228803,214.0900989,10.22,'11111222,11111222,11111222' 
TABS,ioos:station:wmo:42045:1,2009-04-02T13:30:00Z,26.2168,-96.4998,4.0,8.227375037,223.2763369,10.09,'11111222,11111222,11111222' 
TABS,ioos:station:wmo:42045:1,2009-04-02T14:00:00Z,26.2168,-96.4998,4.0,8.823208033,232.1820588,11.09,'11111222,11111222,11111222' 
TABS,ioos:station:wmo:42045:1,2009-04-02T14:30:00Z,26.2168,-96.4998,4.0,7.096618913,241.5571379,8.89,'11111222,11111222,11111222' 
TABS,ioos:station:wmo:42045:1,2009-04-02T15:00:00Z,26.2168,-96.4998,4.0,7.771447742,248.4861441,9.31,'11111222,11111222,11111222' 
TABS,ioos:station:wmo:42045:1,2009-04-02T15:30:00Z,26.2168,-96.4998,4.0,7.267716285,261.6134872,8.61,'11111222,11111222,11111222' 
TABS,ioos:station:wmo:42045:1,2009-04-02T16:00:00Z,26.2168,-96.4998,4.0,8.905868851,290.1644441,11.02,'11111222,11111222,11111222' 
TABS,ioos:station:wmo:42045:1,2009-04-02T16:30:00Z,26.2168,-96.4998,4.0,10.67531733,317.73342,13.5,'11111222,11111222,11111222' 
TABS,ioos:station:wmo:42045:1,2009-04-02T17:00:00Z,26.2168,-96.4998,4.0,10.17724914,331.2186606,12.86,'11111222,11111222,11111222' 
TABS,ioos:station:wmo:42045:1,2009-04-02T17:30:00Z,26.2168,-96.4998,4.0,9.624370109,335.2454963,11.65,'11111222,11111222,11111222' 
TABS,ioos:station:wmo:42045:1,2009-04-02T18:00:00Z,26.2168,-96.4998,4.0,8.799931818,340.2058603,10.76,'11111222,11111222,11111222' 
TABS,ioos:station:wmo:42045:1,2009-04-02T18:30:00Z,26.2168,-96.4998,4.0,9.065638422,340.2057167,10.87,'11111222,11111222,11111222' 
TABS,ioos:station:wmo:42045:1,2009-04-02T19:00:00Z,26.2168,-96.4998,4.0,9.652383125,336.6219858,11.37,'11111222,11111222,11111222' 
TABS,ioos:station:wmo:42045:1,2009-04-02T19:30:00Z,26.2168,-96.4998,4.0,10.1976664,343.9463843,12.12,'11111222,11111222,11111222' 
TABS,ioos:station:wmo:42045:1,2009-04-02T20:00:00Z,26.2168,-96.4998,4.0,9.374651994,347.4312363,11.3,'11111222,11111222,11111222' 
TABS,ioos:station:wmo:42045:1,2009-04-02T20:30:00Z,26.2168,-96.4998,4.0,8.009406969,348.5495908,9.7,'11111222,11111222,11111222' 
TABS,ioos:station:wmo:42045:1,2009-04-02T21:00:00Z,26.2168,-96.4998,4.0,7.060347017,359.431721,8.43,'11111222,11144222,11111222' 
TABS,ioos:station:wmo:42045:1,2009-04-02T21:30:00Z,26.2168,-96.4998,4.0,6.483085685,1.767612463,8.13,'11111222,11111222,11111222' 
TABS,ioos:station:wmo:42045:1,2009-04-02T22:00:00Z,26.2168,-96.4998,4.0,7.183070374,358.3244892,8.93,'11111222,11111222,11111222' 
TABS,ioos:station:wmo:42045:1,2009-04-02T22:30:00Z,26.2168,-96.4998,4.0,8.059292773,6.339966461,9.18,'11111222,11111222,11111222' 
TABS,ioos:station:wmo:42045:1,2009-04-02T23:00:00Z,26.2168,-96.4998,4.0,8.174350127,7.733369556,9.99,'11111222,11111222,11111222' 
TABS,ioos:station:wmo:42045:1,2009-04-02T23:30:00Z,26.2168,-96.4998,4.0,8.100395052,12.11427886,9.96,'11111222,11111222,11111222' 
TABS,ioos:station:wmo:42045:1,2009-04-03T00:00:00Z,26.2168,-96.4998,4.0,8.907131974,17.1734182,10.35,'11111222,11111222,11111222' 
TABS,ioos:station:wmo:42045:1,2009-04-03T00:30:00Z,26.2168,-96.4998,4.0,8.352969532,28.22150196,9.55,'11111222,11111222,11111222' 
TABS,ioos:station:wmo:42045:1,2009-04-03T01:00:00Z,26.2168,-96.4998,4.0,6.44156037,39.64582868,7.43,'11111222,11111222,11111222' 
TABS,ioos:station:wmo:42045:1,2009-04-03T01:30:00Z,26.2168,-96.4998,4.0,6.339794949,40.65000176,8.13,'11111222,11111222,11111222' 
TABS,ioos:station:wmo:42045:1,2009-04-03T02:00:00Z,26.2168,-96.4998,4.0,6.368555566,39.83982463,7.57,'11111222,11111222,11111222' 
TABS,ioos:station:wmo:42045:1,2009-04-03T02:30:00Z,26.2168,-96.4998,4.0,6.553319769,42.64977762,7.76,'11111222,11111222,11111222' 
TABS,ioos:station:wmo:42045:1,2009-04-03T03:00:00Z,26.2168,-96.4998,4.0,6.407651676,46.13785866,7.5,'11111222,11111222,11111222' 
TABS,ioos:station:wmo:42045:1,2009-04-03T03:30:00Z,26.2168,-96.4998,4.0,7.080346037,46.43034708,8.21,'11111222,11111222,11111222' 
TABS,ioos:station:wmo:42045:1,2009-04-03T04:00:00Z,26.2168,-96.4998,4.0,7.373743961,40.10373149,8.46,'11111222,11111222,11111222' 
TABS,ioos:station:wmo:42045:1,2009-04-03T04:30:00Z,26.2168,-96.4998,4.0,6.39301181,44.1124333,7.45,'11111222,11111222,11111222' 
TABS,ioos:station:wmo:42045:1,2009-04-03T05:00:00Z,26.2168,-96.4998,4.0,7.097069818,48.31250207,8.4,'11111222,11111222,11111222' 
TABS,ioos:station:wmo:42045:1,2009-04-03T05:30:00Z,26.2168,-96.4998,4.0,6.209186742,44.08616374,7.69,'11111222,11111222,11111222' 
TABS,ioos:station:wmo:42045:1,2009-04-03T06:00:00Z,26.2168,-96.4998,4.0,7.184218816,44.88689775,8.44,'11111222,11111222,11111222' 
TABS,ioos:station:wmo:42045:1,2009-04-03T06:30:00Z,26.2168,-96.4998,4.0,6.638087074,52.83630051,8.29,'11111222,11111222,11111222' 
TABS,ioos:station:wmo:42045:1,2009-04-03T07:00:00Z,26.2168,-96.4998,4.0,6.494259003,53.64147986,7.59,'11111222,11111222,11111222' 
TABS,ioos:station:wmo:42045:1,2009-04-03T07:30:00Z,26.2168,-96.4998,4.0,7.868042959,53.31910184,9.29,'11111222,11111222,11111222' 
TABS,ioos:station:wmo:42045:1,2009-04-03T08:00:00Z,26.2168,-96.4998,4.0,9.083242813,56.44954889,10.86,'11111222,11111222,11111222' 
TABS,ioos:station:wmo:42045:1,2009-04-03T08:30:00Z,26.2168,-96.4998,4.0,8.52934933,55.50843516,10.62,'11111222,11111222,11111222' 
TABS,ioos:station:wmo:42045:1,2009-04-03T09:00:00Z,26.2168,-96.4998,4.0,8.853315763,58.39215075,10.3,'11111222,11111222,11111222' 
TABS,ioos:station:wmo:42045:1,2009-04-03T09:30:00Z,26.2168,-96.4998,4.0,7.31894118,64.94018028,8.52,'11111222,11111222,11111222' 
TABS,ioos:station:wmo:42045:1,2009-04-03T10:00:00Z,26.2168,-96.4998,4.0,6.472225274,64.46397945,7.61,'11111222,11111222,11111222' 
TABS,ioos:station:wmo:42045:1,2009-04-03T10:30:00Z,26.2168,-96.4998,4.0,6.085474509,68.70524845,7.44,'11111222,11111222,11111222' 
TABS,ioos:station:wmo:42045:1,2009-04-03T11:00:00Z,26.2168,-96.4998,4.0,5.663585437,76.62585815,7.0,'11111222,11111222,11111222' 
TABS,ioos:station:wmo:42045:1,2009-04-03T11:30:00Z,26.2168,-96.4998,4.0,4.759432739,80.20083176,5.75,'11111222,11111222,11111222' 
TABS,ioos:station:wmo:42045:1,2009-04-03T12:00:00Z,26.2168,-96.4998,4.0,4.113113176,92.22978259,5.06,'11111222,11111222,11111222' 
TABS,ioos:station:wmo:42045:1,2009-04-03T12:30:00Z,26.2168,-96.4998,4.0,4.523195773,92.15433041,5.48,'11111222,11111222,11111222' 
TABS,ioos:station:wmo:42045:1,2009-04-03T13:00:00Z,26.2168,-96.4998,4.0,4.06773893,103.2167141,4.98,'11111222,11111222,11111222' 
TABS,ioos:station:wmo:42045:1,2009-04-03T13:30:00Z,26.2168,-96.4998,4.0,4.549428536,105.6862902,5.53,'11111222,11111222,11111222' 
TABS,ioos:station:wmo:42045:1,2009-04-03T14:00:00Z,26.2168,-96.4998,4.0,4.443253313,104.0679065,5.4,'11111222,11111222,11111222' 
TABS,ioos:station:wmo:42045:1,2009-04-03T14:30:00Z,26.2168,-96.4998,4.0,4.767315807,109.9937487,5.89,'11111222,11111222,11111222' 
TABS,ioos:station:wmo:42045:1,2009-04-03T15:00:00Z,26.2168,-96.4998,4.0,4.13342473,115.2014856,4.91,'11111222,11111222,11111222' 
TABS,ioos:station:wmo:42045:1,2009-04-03T15:30:00Z,26.2168,-96.4998,4.0,4.060738849,116.3130079,5.13,'11111222,11111222,11111222' 
TABS,ioos:station:wmo:42045:1,2009-04-03T16:00:00Z,26.2168,-96.4998,4.0,4.129818398,114.7658138,5.12,'11111222,11111222,11111222' 
TABS,ioos:station:wmo:42045:1,2009-04-03T16:30:00Z,26.2168,-96.4998,4.0,4.114000486,106.2327336,4.89,'11111222,11111222,11111222' 
TABS,ioos:station:wmo:42045:1,2009-04-03T17:00:00Z,26.2168,-96.4998,4.0,4.028821168,108.0755471,4.87,'11111222,11111222,11111222' 
TABS,ioos:station:wmo:42045:1,2009-04-03T17:30:00Z,26.2168,-96.4998,4.0,4.50089991,101.5350146,5.53,'11111222,11111222,11111222' 
TABS,ioos:station:wmo:42045:1,2009-04-03T18:00:00Z,26.2168,-96.4998,4.0,4.379235093,112.7007467,5.43,'11111222,11111222,11111222' 
TABS,ioos:station:wmo:42045:1,2009-04-03T18:30:00Z,26.2168,-96.4998,4.0,3.986000502,115.0867262,5.31,'11111222,11111222,11111222' 
TABS,ioos:station:wmo:42045:1,2009-04-03T19:00:00Z,26.2168,-96.4998,4.0,5.576602909,119.7834637,6.63,'11111222,11111222,11111222' 
TABS,ioos:station:wmo:42045:1,2009-04-03T19:30:00Z,26.2168,-96.4998,4.0,5.468692714,119.7062472,6.86,'11111222,11111222,11111222' 
TABS,ioos:station:wmo:42045:1,2009-04-03T20:00:00Z,26.2168,-96.4998,4.0,5.162518765,120.2408097,6.49,'11111222,11111222,11111222' 
TABS,ioos:station:wmo:42045:1,2009-04-03T20:30:00Z,26.2168,-96.4998,4.0,5.668059633,126.6074101,6.93,'11111222,11111222,11111222' 
TABS,ioos:station:wmo:42045:1,2009-04-03T21:00:00Z,26.2168,-96.4998,4.0,6.079884867,131.2660363,7.59,'11111222,11111222,11111222' 
TABS,ioos:station:wmo:42045:1,2009-04-03T21:30:00Z,26.2168,-96.4998,4.0,6.594118592,133.0338557,7.95,'11111222,11111222,11111222' 
TABS,ioos:station:wmo:42045:1,2009-04-03T22:00:00Z,26.2168,-96.4998,4.0,6.418613557,131.4633627,8.05,'11111222,11111222,11111222' 
TABS,ioos:station:wmo:42045:1,2009-04-03T22:30:00Z,26.2168,-96.4998,4.0,6.639917168,135.4274319,7.77,'11111222,11111222,11111222' 
TABS,ioos:station:wmo:42045:1,2009-04-03T23:00:00Z,26.2168,-96.4998,4.0,6.037226184,139.6357683,7.27,'11111222,11111222,11111222' 
TABS,ioos:station:wmo:42045:1,2009-04-03T23:30:00Z,26.2168,-96.4998,4.0,6.31381026,139.6253968,7.55,'11111222,11111222,11111222' 
TABS,ioos:station:wmo:42045:1,2009-04-04T00:00:00Z,26.2168,-96.4998,4.0,6.550457999,139.892354,7.76,'11111222,11111222,11111222' 
TABS,ioos:station:wmo:42045:1,2009-04-04T00:30:00Z,26.2168,-96.4998,4.0,7.057683756,137.6993159,8.46,'11111222,11111222,11111222' 
TABS,ioos:station:wmo:42045:1,2009-04-04T01:00:00Z,26.2168,-96.4998,4.0,6.767045145,134.8207061,8.24,'11111222,11111222,11111222' 
TABS,ioos:station:wmo:42045:1,2009-04-04T01:30:00Z,26.2168,-96.4998,4.0,6.730022288,138.4940291,8.36,'11111222,11111222,11111222' 
TABS,ioos:station:wmo:42045:1,2009-04-04T02:00:00Z,26.2168,-96.4998,4.0,6.789057372,140.9187241,8.01,'11111222,11111222,11111222' 
TABS,ioos:station:wmo:42045:1,2009-04-04T02:30:00Z,26.2168,-96.4998,4.0,7.242775711,142.2918317,8.33,'11111222,11111222,11111222' 
TABS,ioos:station:wmo:42045:1,2009-04-04T03:00:00Z,26.2168,-96.4998,4.0,6.318077239,144.5996612,7.32,'11111222,11111222,11111222' 
TABS,ioos:station:wmo:42045:1,2009-04-04T03:30:00Z,26.2168,-96.4998,4.0,6.223961761,139.8882785,7.39,'11111222,11111222,11111222' 
TABS,ioos:station:wmo:42045:1,2009-04-04T04:00:00Z,26.2168,-96.4998,4.0,6.454037496,142.9350939,7.44,'11111222,11111222,11111222' 
TABS,ioos:station:wmo:42045:1,2009-04-04T04:30:00Z,26.2168,-96.4998,4.0,6.666160814,148.9333442,7.95,'11111222,11111222,11111222' 
TABS,ioos:station:wmo:42045:1,2009-04-04T05:00:00Z,26.2168,-96.4998,4.0,6.680628713,150.595807,8.09,'11111222,11111222,11111222' 
TABS,ioos:station:wmo:42045:1,2009-04-04T05:30:00Z,26.2168,-96.4998,4.0,6.420669747,155.2313604,7.91,'11111222,11111222,11111222' 
TABS,ioos:station:wmo:42045:1,2009-04-04T06:00:00Z,26.2168,-96.4998,4.0,6.800073529,160.4994622,8.76,'11111222,11111222,11111222' 
TABS,ioos:station:wmo:42045:1,2009-04-04T06:30:00Z,26.2168,-96.4998,4.0,6.72687892,160.7303074,8.1,'11111222,11111222,11111222' 
TABS,ioos:station:wmo:42045:1,2009-04-04T07:00:00Z,26.2168,-96.4998,4.0,5.986668523,159.5674296,7.31,'11111222,11111222,11111222' 
TABS,ioos:station:wmo:42045:1,2009-04-04T07:30:00Z,26.2168,-96.4998,4.0,5.629209536,160.9215605,6.73,'11111222,11111222,11111222' 
TABS,ioos:station:wmo:42045:1,2009-04-04T08:00:00Z,26.2168,-96.4998,4.0,6.446223701,160.3284957,7.54,'11111222,11111222,11111222' 
TABS,ioos:station:wmo:42045:1,2009-04-04T08:30:00Z,26.2168,-96.4998,4.0,6.912741858,161.6177253,8.12,'11111222,11111222,11111222' 
TABS,ioos:station:wmo:42045:1,2009-04-04T09:00:00Z,26.2168,-96.4998,4.0,7.02,157.3803984,8.22,'11111222,11111222,11111222' 
TABS,ioos:station:wmo:42045:1,2009-04-04T09:30:00Z,26.2168,-96.4998,4.0,8.02018703,158.2651817,9.23,'11111222,11111222,11111222' 
TABS,ioos:station:wmo:42045:1,2009-04-04T10:00:00Z,26.2168,-96.4998,4.0,8.216300871,160.81552,10.98,'11111222,11111222,11111222' 
TABS,ioos:station:wmo:42045:1,2009-04-04T10:30:00Z,26.2168,-96.4998,4.0,8.981091248,161.161821,11.36,'11111222,11111222,11111222' 
TABS,ioos:station:wmo:42045:1,2009-04-04T11:00:00Z,26.2168,-96.4998,4.0,8.566644617,156.3976956,11.0,'11111222,11111222,11111222' 
TABS,ioos:station:wmo:42045:1,2009-04-04T11:30:00Z,26.2168,-96.4998,4.0,8.497870321,155.4558726,10.51,'11111222,11111222,11111222' 
TABS,ioos:station:wmo:42045:1,2009-04-04T12:00:00Z,26.2168,-96.4998,4.0,8.086216668,161.0947606,10.12,'11111222,11111222,11111222' 
TABS,ioos:station:wmo:42045:1,2009-04-04T12:30:00Z,26.2168,-96.4998,4.0,9.329201466,162.1479522,11.07,'11111222,11111222,11111222' 
TABS,ioos:station:wmo:42045:1,2009-04-04T13:00:00Z,26.2168,-96.4998,4.0,9.012663313,166.1336043,10.8,'11111222,11111222,11111222' 
TABS,ioos:station:wmo:42045:1,2009-04-04T13:30:00Z,26.2168,-96.4998,4.0,9.721584233,166.6787288,12.17,'11111222,11111222,11111222' 
TABS,ioos:station:wmo:42045:1,2009-04-04T14:00:00Z,26.2168,-96.4998,4.0,8.523215356,168.7694056,9.99,'11111222,11111222,11111222' 
TABS,ioos:station:wmo:42045:1,2009-04-04T14:30:00Z,26.2168,-96.4998,4.0,8.948659117,164.9079785,10.52,'11111222,11111222,11111222' 
TABS,ioos:station:wmo:42045:1,2009-04-04T15:00:00Z,26.2168,-96.4998,4.0,8.912042415,164.3109497,10.31,'11111222,11111222,11111222' 
TABS,ioos:station:wmo:42045:1,2009-04-04T15:30:00Z,26.2168,-96.4998,4.0,8.741561645,167.9833041,11.03,'11111222,11111222,11111222' 
TABS,ioos:station:wmo:42045:1,2009-04-04T16:00:00Z,26.2168,-96.4998,4.0,7.987239824,169.7595489,9.63,'11111222,11111222,11111222' 
TABS,ioos:station:wmo:42045:1,2009-04-04T16:30:00Z,26.2168,-96.4998,4.0,7.172510021,169.3953014,8.54,'11111222,11111222,11111222' 
TABS,ioos:station:wmo:42045:1,2009-04-04T17:00:00Z,26.2168,-96.4998,4.0,6.714074769,170.3976177,7.74,'11111222,11111222,11111222' 
TABS,ioos:station:wmo:42045:1,2009-04-04T17:30:00Z,26.2168,-96.4998,4.0,6.345801762,170.5675972,7.45,'11111222,11111222,11111222' 
TABS,ioos:station:wmo:42045:1,2009-04-04T18:00:00Z,26.2168,-96.4998,4.0,5.179623538,168.1913394,6.0,'11111222,11111222,11111222' 
TABS,ioos:station:wmo:42045:1,2009-04-04T18:30:00Z,26.2168,-96.4998,4.0,4.908054604,167.408122,5.64,'11111222,11111222,11111222' 